Location: Lima
(44.6384°N, 112.5920°W)
Time: 17:36:28
(UTC+00:00)

CAS-4B - Visible Passes

Search period start: 16 April 2024 00:00
Search period end: 26 April 2024 00:00
Orbit: 480 x 498 km, 43.0° (Epoch: 16 April)

Date Brightness Start Highest point End Pass type
(mag) Time Alt. Az. Time Alt. Az. Time Alt. Az.
16 Apr ? 10:33:33 11° SE 10:33:34 11° SE 10:34:54 10° ESE visible
16 Apr ? 12:08:23 10° SW 12:11:58 38° SSE 12:15:35 10° E visible
17 Apr ? 10:08:54 10° SE 10:08:54 10° SE 10:09:07 10° ESE visible
17 Apr ? 11:43:15 14° SW 11:46:11 38° SSE 11:49:47 10° E visible
18 Apr ? 11:18:30 23° SSW 11:20:21 38° SSE 11:23:58 10° E visible
19 Apr ? 10:53:40 34° S 10:54:29 38° SSE 10:58:04 10° E visible
20 Apr ? 10:28:46 38° SSE 10:28:46 38° SSE 10:32:09 10° E visible
20 Apr ? 12:03:36 10° W 12:07:25 70° S 12:11:15 10° E visible
21 Apr ? 10:03:49 29° ESE 10:03:49 29° ESE 10:06:11 10° E visible
21 Apr ? 11:38:09 13° W 11:41:26 70° S 11:45:16 10° E visible
22 Apr ? 09:38:49 19° E 09:38:49 19° E 09:40:09 10° E visible
22 Apr ? 11:13:09 23° WSW 11:15:26 70° S 11:19:14 10° E visible
23 Apr ? 09:13:47 12° E 09:13:47 12° E 09:14:06 10° E visible
23 Apr ? 10:48:07 39° WSW 10:49:22 70° S 10:53:11 10° E visible
24 Apr ? 10:23:05 68° SSW 10:23:15 70° S 10:27:04 10° E visible
25 Apr ? 09:58:04 46° ESE 09:58:04 46° ESE 10:00:55 10° E visible
25 Apr ? 11:32:24 11° W 11:36:01 50° SSW 11:39:44 10° ESE visible
